Location: Newark
(35.5300°N, 14.3000°E)
Time: 11:38:39
(UTC+00:00)

Transit 4A - Pass Details

Date: 30 November 2019
Orbit: 871 x 973 km, 66.8° (Epoch: 17 January)

Event Time Altitude Azimuth Distance (km) Brightness Sun altitude
Rises 18:33:56 0° 224° (SW) 3,627 11.6 -32.8°
Reaches altitude 10° 18:36:37 10° 230° (SW) 2,673 10.9 -33.3°
Maximum altitude 18:42:32 44° 302° (WNW) 1,267 8.8 -34.5°
Enters shadow 18:42:51 44° 310° (NW) 1,272 8.7 -34.6°
